• In Romania
  • List of Countries
  • For 7 days
  • Water Temperature
  • Satellite Maps
  • Weather Map
  • Weather Widgets
  • user-avatar
    Login

    Hourly Weather Wzorki

    Today, 24 October, Wednesday

    Time Temperature Precipitation Wind Pressure Humidity
    00:00 +7°C° 1 mm 9 mps 725 mmHg 80%
    01:00 +7°C° 1 mm 9 mps 725 mmHg 80%
    02:00 +7°C° 0.5 mm 9 mps 724 mmHg 79%
    03:00 +6°C° 0.5 mm 9 mps 724 mmHg 78%
    04:00 +6°C° 0.5 mm 8 mps 723 mmHg 77%
    05:00 +5°C° 0.2 mm 9 mps 724 mmHg 74%
    06:00 +5°C° 0.2 mm 9 mps 724 mmHg 72%
    07:00 +3°C° 0.2 mm 9 mps 724 mmHg 70%
    08:00 +3°C° 0.2 mm 10 mps 725 mmHg 64%
    09:00 +5°C° 0.2 mm 10 mps 726 mmHg 58%
    10:00 +4°C° 0.2 mm 11 mps 727 mmHg 52%
    11:00 +4°C° 0 mm 11 mps 727 mmHg 48%
    12:00 +4°C° 0 mm 11 mps 727 mmHg 45%
    13:00 +6°C° 0 mm 11 mps 728 mmHg 41%
    14:00 +5°C° 0 mm 10 mps 728 mmHg 43%
    15:00 +5°C° 0 mm 9 mps 729 mmHg 44%
    16:00 +4°C° 0 mm 8 mps 730 mmHg 45%
    17:00 +4°C° 0 mm 7 mps 730 mmHg 48%
    18:00 +3°C° 0 mm 7 mps 731 mmHg 51%
    19:00 +3°C° 0 mm 6 mps 732 mmHg 54%
    20:00 +3°C° 0 mm 6 mps 732 mmHg 56%
    21:00 +2°C° 0 mm 6 mps 733 mmHg 58%
    22:00 +2°C° 0 mm 6 mps 733 mmHg 59%
    23:00 +2°C° 0 mm 6 mps 733 mmHg 61%

    Tomorrow, 25 October, Thursday

    Time Temperature Precipitation Wind Pressure Humidity
    00:00 +2°C° 0 mm 6 mps 734 mmHg 63%
    01:00 +1°C° 0 mm 6 mps 734 mmHg 65%
    02:00 +1°C° 0 mm 5 mps 734 mmHg 69%
    03:00 +1°C° 0 mm 5 mps 734 mmHg 74%
    04:00 +1°C° 0 mm 5 mps 734 mmHg 78%
    05:00 +1°C° 0 mm 5 mps 734 mmHg 78%
    06:00 +1°C° 0 mm 5 mps 733 mmHg 77%
    07:00 +2°C° 0 mm 5 mps 733 mmHg 76%
    08:00 +2°C° 0.5 mm 6 mps 732 mmHg 78%
    09:00 +3°C° 0.5 mm 6 mps 732 mmHg 79%
    10:00 +4°C° 0.5 mm 6 mps 731 mmHg 81%
    11:00 +5°C° 0.2 mm 7 mps 731 mmHg 79%
    12:00 +7°C° 0.2 mm 8 mps 730 mmHg 77%
    13:00 +10°C° 0.2 mm 9 mps 729 mmHg 76%
    14:00 +10°C° 0.3 mm 9 mps 729 mmHg 78%
    15:00 +9°C° 0.3 mm 8 mps 729 mmHg 80%
    16:00 +9°C° 0.3 mm 8 mps 729 mmHg 82%
    17:00 +9°C° 0.2 mm 8 mps 729 mmHg 82%
    18:00 +9°C° 0.2 mm 8 mps 730 mmHg 82%
    19:00 +9°C° 0.2 mm 8 mps 730 mmHg 81%
    20:00 +8°C° 0.2 mm 7 mps 731 mmHg 80%
    21:00 +8°C° 0.2 mm 6 mps 731 mmHg 80%
    22:00 +7°C° 0.2 mm 6 mps 731 mmHg 79%
    23:00 +6°C° 0 mm 5 mps 731 mmHg 79%

    Day after tomorrow, 26 October, Friday

    Time Temperature Precipitation Wind Pressure Humidity
    00:00 +6°C° 0 mm 5 mps 731 mmHg 80%
    01:00 +5°C° 0 mm 5 mps 732 mmHg 80%
    02:00 +5°C° 0 mm 5 mps 732 mmHg 81%
    03:00 +5°C° 0 mm 4 mps 732 mmHg 82%
    04:00 +5°C° 0 mm 4 mps 732 mmHg 83%
    05:00 +5°C° 0 mm 4 mps 732 mmHg 84%
    06:00 +5°C° 0 mm 4 mps 732 mmHg 85%
    07:00 +5°C° 0 mm 4 mps 732 mmHg 85%
    08:00 +6°C° 0 mm 4 mps 732 mmHg 81%
    09:00 +7°C° 0 mm 4 mps 732 mmHg 76%
    10:00 +8°C° 0 mm 5 mps 732 mmHg 71%
    11:00 +9°C° 0 mm 5 mps 731 mmHg 70%
    12:00 +10°C° 0 mm 5 mps 731 mmHg 68%
    13:00 +12°C° 0 mm 5 mps 731 mmHg 66%
    14:00 +12°C° 0 mm 4 mps 730 mmHg 68%
    15:00 +11°C° 0 mm 4 mps 730 mmHg 70%
    16:00 +11°C° 0 mm 4 mps 729 mmHg 72%
    17:00 +10°C° 0 mm 4 mps 729 mmHg 74%
    18:00 +10°C° 0 mm 4 mps 729 mmHg 77%
    19:00 +8°C° 0 mm 4 mps 728 mmHg 79%
    20:00 +8°C° 0 mm 4 mps 728 mmHg 80%
    21:00 +8°C° 0 mm 5 mps 728 mmHg 81%
    22:00 +8°C° 0 mm 5 mps 728 mmHg 81%
    23:00 +8°C° 0 mm 5 mps 728 mmHg 81%

    27 October, Saturday

    Time Temperature Precipitation Wind Pressure Humidity
    00:00 +8°C° 0 mm 5 mps 728 mmHg 80%
    01:00 +7°C° 0 mm 5 mps 728 mmHg 79%
    02:00 +7°C° 0 mm 5 mps 729 mmHg 78%
    03:00 +7°C° 0 mm 6 mps 729 mmHg 77%
    04:00 +5°C° 0 mm 6 mps 729 mmHg 76%
    05:00 +5°C° 0 mm 6 mps 729 mmHg 74%
    06:00 +6°C° 0 mm 5 mps 730 mmHg 71%
    07:00 +6°C° 0 mm 5 mps 730 mmHg 69%
    08:00 +6°C° 0 mm 5 mps 730 mmHg 65%
    09:00 +6°C° 0 mm 5 mps 731 mmHg 61%
    10:00 +7°C° 0 mm 5 mps 731 mmHg 57%
    11:00 +7°C° 0 mm 5 mps 731 mmHg 55%
    12:00 +7°C° 0 mm 4 mps 732 mmHg 54%
    13:00 +8°C° 0 mm 4 mps 732 mmHg 52%
    14:00 +8°C° 0 mm 3 mps 732 mmHg 53%
    15:00 +8°C° 0 mm 3 mps 732 mmHg 55%
    16:00 +8°C° 0 mm 2 mps 732 mmHg 57%
    17:00 +7°C° 0 mm 2 mps 733 mmHg 58%
    18:00 +7°C° 0 mm 2 mps 733 mmHg 60%
    19:00 +7°C° 0 mm 1 mps 733 mmHg 62%
    20:00 +7°C° 0 mm 1 mps 734 mmHg 64%
    21:00 +7°C° 0 mm 1 mps 734 mmHg 65%
    22:00 +7°C° 0 mm 1 mps 734 mmHg 67%
    23:00 +7°C° 0.2 mm 1 mps 734 mmHg 70%

    28 October, Sunday

    Time Temperature Precipitation Wind Pressure Humidity
    00:00 +6°C° 0.2 mm 1 mps 734 mmHg 72%
    01:00 +6°C° 0.2 mm 1 mps 735 mmHg 75%
    02:00 +5°C° 0.2 mm 2 mps 735 mmHg 76%
    03:00 +5°C° 0.2 mm 2 mps 735 mmHg 78%
    04:00 +4°C° 0.2 mm 3 mps 735 mmHg 80%
    05:00 +4°C° 0.2 mm 3 mps 735 mmHg 80%
    06:00 +4°C° 0.2 mm 3 mps 735 mmHg 81%
    07:00 +4°C° 0.2 mm 4 mps 735 mmHg 81%
    08:00 +4°C° 0.3 mm 4 mps 735 mmHg 80%
    09:00 +3°C° 0.3 mm 5 mps 735 mmHg 78%
    10:00 +5°C° 0.3 mm 5 mps 735 mmHg 77%
    11:00 +3°C° 0.4 mm 6 mps 735 mmHg 79%
    12:00 +3°C° 0.4 mm 6 mps 734 mmHg 80%
    13:00 +3°C° 0.4 mm 6 mps 734 mmHg 82%
    14:00 +3°C° 1 mm 6 mps 734 mmHg 84%
    15:00 +3°C° 1 mm 6 mps 733 mmHg 86%
    16:00 +3°C° 1 mm 6 mps 733 mmHg 88%
    17:00 +3°C° 1.4 mm 6 mps 733 mmHg 89%
    18:00 +3°C° 1.4 mm 6 mps 733 mmHg 90%
    19:00 +3°C° 1.4 mm 5 mps 733 mmHg 91%
    20:00 +3°C° 0.9 mm 5 mps 732 mmHg 92%
    21:00 +3°C° 0.9 mm 5 mps 732 mmHg 92%
    22:00 +3°C° 0.9 mm 5 mps 732 mmHg 93%
    23:00 +5°C° 0.3 mm 5 mps 731 mmHg 93%

    29 October, Monday

    Time Temperature Precipitation Wind Pressure Humidity
    00:00 +5°C° 0.3 mm 5 mps 731 mmHg 94%
    01:00 +5°C° 0.3 mm 5 mps 730 mmHg 94%
    02:00 +6°C° 0.2 mm 5 mps 730 mmHg 94%
    03:00 +6°C° 0.2 mm 4 mps 729 mmHg 94%
    04:00 +6°C° 0.2 mm 4 mps 729 mmHg 94%
    05:00 +7°C° 0.1 mm 4 mps 728 mmHg 92%
    06:00 +7°C° 0.1 mm 4 mps 728 mmHg 91%
    07:00 +8°C° 0.1 mm 4 mps 728 mmHg 89%
    08:00 +10°C° 0.1 mm 4 mps 727 mmHg 86%
    09:00 +11°C° 0.1 mm 4 mps 727 mmHg 83%
    10:00 +12°C° 0.1 mm 5 mps 727 mmHg 80%
    11:00 +12°C° 0.1 mm 4 mps 727 mmHg 81%
    12:00 +12°C° 0.1 mm 4 mps 727 mmHg 82%
    13:00 +12°C° 0.1 mm 3 mps 726 mmHg 83%
    14:00 +12°C° 0.4 mm 3 mps 726 mmHg 85%
    15:00 +12°C° 0.4 mm 3 mps 726 mmHg 87%
    16:00 +12°C° 0.4 mm 3 mps 726 mmHg 89%
    17:00 +11°C° 0.1 mm 3 mps 726 mmHg 90%
    18:00 +11°C° 0.1 mm 3 mps 727 mmHg 90%
    19:00 +12°C° 0.1 mm 2 mps 727 mmHg 91%
    20:00 +12°C° 0 mm 2 mps 727 mmHg 91%
    21:00 +12°C° 0 mm 2 mps 727 mmHg 90%
    22:00 +10°C° 0 mm 2 mps 727 mmHg 90%
    23:00 +10°C° 0 mm 2 mps 727 mmHg 90%

    30 October, Tuesday

    Time Temperature Precipitation Wind Pressure Humidity
    00:00 +10°C° 0 mm 3 mps 727 mmHg 91%
    01:00 +10°C° 0 mm 3 mps 727 mmHg 91%
    02:00 +10°C° 0 mm 3 mps 727 mmHg 91%
    03:00 +10°C° 0 mm 3 mps 727 mmHg 91%
    04:00 +10°C° 0 mm 4 mps 726 mmHg 90%
    05:00 +11°C° 0 mm 4 mps 726 mmHg 89%
    06:00 +11°C° 0 mm 4 mps 727 mmHg 88%
    07:00 +10°C° 0 mm 5 mps 727 mmHg 87%
    08:00 +13°C° 0 mm 5 mps 727 mmHg 83%
    09:00 +14°C° 0 mm 5 mps 727 mmHg 78%
    10:00 +15°C° 0 mm 6 mps 727 mmHg 74%
    11:00 +15°C° 0.1 mm 5 mps 727 mmHg 75%
    12:00 +15°C° 0.1 mm 5 mps 727 mmHg 75%
    13:00 +15°C° 0.1 mm 5 mps 727 mmHg 76%
    14:00 +14°C° 0.9 mm 4 mps 727 mmHg 82%
    15:00 +13°C° 0.9 mm 3 mps 727 mmHg 87%
    16:00 +14°C° 0.9 mm 2 mps 727 mmHg 92%
    17:00 +14°C° 0.4 mm 2 mps 727 mmHg 93%
    18:00 +13°C° 0.4 mm 2 mps 726 mmHg 94%
    19:00 +13°C° 0.4 mm 1 mps 726 mmHg 95%
    20:00 +13°C° 1.7 mm 2 mps 726 mmHg 95%
    21:00 +13°C° 1.7 mm 2 mps 726 mmHg 95%
    22:00 +13°C° 1.7 mm 2 mps 726 mmHg 95%
    23:00 +11°C° 1.6 mm 3 mps 726 mmHg 94%
    Show more